Location: Campillo
(40.8621°N, 4.2488°W)
Time: 04:50:23
(UTC+00:00)

Cosmos 158 Rocket - Pass Details

Date: 01 October 2021
Orbit: 699 x 792 km, 74.0° (Epoch: 19 October)

Event Time Altitude Azimuth Distance (km) Brightness Sun altitude
Rises 18:37:26 0° 345° (NNW) 3,139 7.4 -8.1°
Reaches altitude 10° 18:39:52 10° 350° (N) 2,202 6.6 -8.6°
Maximum altitude 18:44:42 52° 67° (ENE) 873 4.0 -9.5°
Drops below altitude 10° 18:49:27 10° 144° (SE) 2,157 6.0 -10.4°
Sets 18:51:47 0° 149° (SSE) 3,068 6.8 -10.8°
